When you browse on this site, cookies collect data to enhance your experience and personalize the content and advertising you see.
Visit our Privacy Policy to learn more. By continuing to use the site, you agree to this use of cookies and data.
  • In Hungary
  • List of Countries
  • For 7 days
  • Water Temperature
  • Weather Map
  • News
  • Weather Widgets
  • user-avatar
    Login

    Hourly Weather Novoe Rozhnovo

    Today, 25 August, Sunday

    Time Temperature Precipitation Wind Pressure Humidity
    00:00 +14°C° 0 mm 2 mps 748 mmHg 95%
    01:00 +13°C° 0 mm 2 mps 748 mmHg 95%
    02:00 +13°C° 0 mm 1 mps 748 mmHg 95%
    03:00 +13°C° 0 mm 1 mps 749 mmHg 95%
    04:00 +13°C° 0 mm 1 mps 749 mmHg 96%
    05:00 +13°C° 0 mm 1 mps 749 mmHg 96%
    06:00 +14°C° 0 mm 2 mps 749 mmHg 90%
    07:00 +16°C° 0 mm 2 mps 750 mmHg 84%
    08:00 +17°C° 0 mm 2 mps 750 mmHg 77%
    09:00 +18°C° 0 mm 2 mps 750 mmHg 71%
    10:00 +19°C° 0 mm 3 mps 750 mmHg 66%
    11:00 +20°C° 0 mm 3 mps 750 mmHg 60%
    12:00 +20°C° 0 mm 3 mps 750 mmHg 60%
    13:00 +21°C° 0 mm 3 mps 750 mmHg 59%
    14:00 +21°C° 0 mm 3 mps 750 mmHg 59%
    15:00 +20°C° 0 mm 2 mps 750 mmHg 63%
    16:00 +20°C° 0 mm 2 mps 750 mmHg 66%
    17:00 +20°C° 0 mm 2 mps 750 mmHg 70%
    18:00 +19°C° 0 mm 1 mps 750 mmHg 76%
    19:00 +16°C° 0 mm 1 mps 751 mmHg 82%
    20:00 +14°C° 0 mm 1 mps 751 mmHg 87%
    21:00 +14°C° 0 mm 1 mps 751 mmHg 89%
    22:00 +13°C° 0 mm 1 mps 751 mmHg 90%
    23:00 +13°C° 0 mm 1 mps 751 mmHg 91%

    Tomorrow, 26 August, Monday

    Time Temperature Precipitation Wind Pressure Humidity
    00:00 +12°C° 0 mm 1 mps 751 mmHg 91%
    01:00 +12°C° 0 mm 1 mps 751 mmHg 92%
    02:00 +12°C° 0 mm 1 mps 752 mmHg 92%
    03:00 +11°C° 0 mm 1 mps 751 mmHg 93%
    04:00 +10°C° 0 mm 0 mps 751 mmHg 93%
    05:00 +10°C° 0 mm 0 mps 751 mmHg 94%
    06:00 +12°C° 0 mm 0 mps 751 mmHg 87%
    07:00 +15°C° 0 mm 1 mps 751 mmHg 81%
    08:00 +18°C° 0 mm 1 mps 751 mmHg 74%
    09:00 +20°C° 0 mm 1 mps 751 mmHg 69%
    10:00 +21°C° 0 mm 1 mps 751 mmHg 63%
    11:00 +21°C° 0 mm 2 mps 750 mmHg 58%
    12:00 +23°C° 0 mm 2 mps 750 mmHg 57%
    13:00 +23°C° 0 mm 2 mps 750 mmHg 55%
    14:00 +22°C° 0 mm 3 mps 750 mmHg 54%
    15:00 +23°C° 0 mm 2 mps 749 mmHg 58%
    16:00 +21°C° 0 mm 2 mps 749 mmHg 63%
    17:00 +21°C° 0 mm 2 mps 748 mmHg 67%
    18:00 +19°C° 0 mm 2 mps 748 mmHg 73%
    19:00 +18°C° 0 mm 2 mps 748 mmHg 79%
    20:00 +16°C° 0 mm 2 mps 748 mmHg 85%
    21:00 +16°C° 0 mm 2 mps 747 mmHg 87%
    22:00 +14°C° 0 mm 3 mps 747 mmHg 88%
    23:00 +14°C° 0 mm 3 mps 747 mmHg 89%

    Day after tomorrow, 27 August, Tuesday

    Time Temperature Precipitation Wind Pressure Humidity
    00:00 +14°C° 0 mm 3 mps 747 mmHg 90%
    01:00 +14°C° 0 mm 3 mps 746 mmHg 91%
    02:00 +14°C° 0 mm 3 mps 746 mmHg 93%
    03:00 +14°C° 0 mm 3 mps 746 mmHg 94%
    04:00 +14°C° 0 mm 3 mps 746 mmHg 95%
    05:00 +14°C° 0 mm 3 mps 746 mmHg 97%
    06:00 +16°C° 0 mm 3 mps 746 mmHg 92%
    07:00 +17°C° 0 mm 3 mps 746 mmHg 88%
    08:00 +18°C° 0 mm 4 mps 746 mmHg 84%
    09:00 +19°C° 0.1 mm 4 mps 746 mmHg 77%
    10:00 +20°C° 0.1 mm 4 mps 746 mmHg 71%
    11:00 +21°C° 0.1 mm 5 mps 746 mmHg 65%
    12:00 +21°C° 0 mm 5 mps 746 mmHg 61%
    13:00 +21°C° 0 mm 5 mps 746 mmHg 57%
    14:00 +22°C° 0 mm 5 mps 746 mmHg 54%
    15:00 +21°C° 0 mm 4 mps 746 mmHg 58%
    16:00 +20°C° 0 mm 3 mps 746 mmHg 62%
    17:00 +20°C° 0 mm 3 mps 746 mmHg 66%
    18:00 +18°C° 0 mm 2 mps 746 mmHg 71%
    19:00 +16°C° 0 mm 2 mps 746 mmHg 76%
    20:00 +15°C° 0 mm 2 mps 746 mmHg 81%
    21:00 +14°C° 0 mm 2 mps 747 mmHg 84%
    22:00 +14°C° 0 mm 2 mps 747 mmHg 86%
    23:00 +13°C° 0 mm 2 mps 747 mmHg 89%

    28 August, Wednesday

    Time Temperature Precipitation Wind Pressure Humidity
    00:00 +12°C° 0 mm 2 mps 747 mmHg 91%
    01:00 +12°C° 0 mm 2 mps 747 mmHg 94%
    02:00 +10°C° 0 mm 2 mps 748 mmHg 96%
    03:00 +10°C° 0 mm 2 mps 748 mmHg 95%
    04:00 +9°C° 0 mm 2 mps 748 mmHg 94%
    05:00 +8°C° 0 mm 3 mps 748 mmHg 92%
    06:00 +9°C° 0 mm 3 mps 749 mmHg 85%
    07:00 +10°C° 0 mm 3 mps 749 mmHg 78%
    08:00 +11°C° 0 mm 3 mps 749 mmHg 71%
    09:00 +12°C° 0 mm 3 mps 749 mmHg 66%
    10:00 +13°C° 0 mm 3 mps 749 mmHg 60%
    11:00 +14°C° 0 mm 3 mps 749 mmHg 54%
    12:00 +15°C° 0 mm 4 mps 749 mmHg 52%
    13:00 +15°C° 0 mm 4 mps 749 mmHg 50%
    14:00 +17°C° 0 mm 4 mps 749 mmHg 49%
    15:00 +16°C° 0 mm 3 mps 749 mmHg 52%
    16:00 +16°C° 0 mm 3 mps 749 mmHg 56%
    17:00 +15°C° 0 mm 2 mps 749 mmHg 60%
    18:00 +13°C° 0 mm 2 mps 749 mmHg 65%
    19:00 +12°C° 0 mm 2 mps 750 mmHg 70%
    20:00 +9°C° 0 mm 2 mps 750 mmHg 75%
    21:00 +8°C° 0 mm 2 mps 750 mmHg 77%
    22:00 +7°C° 0 mm 2 mps 750 mmHg 79%
    23:00 +7°C° 0 mm 2 mps 750 mmHg 81%

    29 August, Thursday

    Time Temperature Precipitation Wind Pressure Humidity
    00:00 +6°C° 0 mm 2 mps 751 mmHg 82%
    01:00 +7°C° 0 mm 1 mps 751 mmHg 84%
    02:00 +6°C° 0 mm 1 mps 751 mmHg 85%
    03:00 +6°C° 0 mm 1 mps 751 mmHg 86%
    04:00 +6°C° 0 mm 1 mps 751 mmHg 87%
    05:00 +6°C° 0 mm 1 mps 751 mmHg 88%
    06:00 +8°C° 0 mm 1 mps 751 mmHg 80%
    07:00 +10°C° 0 mm 1 mps 751 mmHg 72%
    08:00 +12°C° 0 mm 1 mps 752 mmHg 65%
    09:00 +13°C° 0 mm 1 mps 752 mmHg 59%
    10:00 +15°C° 0 mm 1 mps 751 mmHg 53%
    11:00 +16°C° 0 mm 2 mps 751 mmHg 48%
    12:00 +17°C° 0 mm 2 mps 751 mmHg 48%
    13:00 +18°C° 0 mm 2 mps 751 mmHg 48%
    14:00 +18°C° 0 mm 2 mps 750 mmHg 48%
    15:00 +19°C° 0 mm 1 mps 750 mmHg 54%
    16:00 +19°C° 0 mm 1 mps 750 mmHg 59%
    17:00 +18°C° 0 mm 1 mps 750 mmHg 64%
    18:00 +15°C° 0 mm 1 mps 750 mmHg 69%
    19:00 +14°C° 0 mm 1 mps 750 mmHg 74%
    20:00 +12°C° 0 mm 1 mps 749 mmHg 79%
    21:00 +11°C° 0 mm 1 mps 749 mmHg 81%
    22:00 +10°C° 0 mm 0 mps 749 mmHg 83%
    23:00 +10°C° 0 mm 0 mps 749 mmHg 84%

    30 August, Friday

    Time Temperature Precipitation Wind Pressure Humidity
    00:00 +9°C° 0 mm 0 mps 749 mmHg 85%
    01:00 +10°C° 0 mm 1 mps 749 mmHg 85%
    02:00 +10°C° 0 mm 1 mps 749 mmHg 86%
    03:00 +10°C° 0 mm 1 mps 749 mmHg 87%
    04:00 +9°C° 0 mm 1 mps 749 mmHg 88%
    05:00 +9°C° 0 mm 1 mps 749 mmHg 89%
    06:00 +11°C° 0 mm 1 mps 749 mmHg 82%
    07:00 +13°C° 0 mm 1 mps 749 mmHg 75%
    08:00 +15°C° 0 mm 2 mps 749 mmHg 69%
    09:00 +18°C° 0 mm 1 mps 749 mmHg 64%
    10:00 +19°C° 0 mm 1 mps 749 mmHg 60%
    11:00 +21°C° 0 mm 1 mps 749 mmHg 56%
    12:00 +21°C° 0 mm 1 mps 749 mmHg 55%
    13:00 +22°C° 0 mm 1 mps 749 mmHg 55%
    14:00 +22°C° 0 mm 1 mps 749 mmHg 54%
    15:00 +22°C° 0 mm 1 mps 749 mmHg 59%
    16:00 +21°C° 0 mm 1 mps 749 mmHg 64%
    17:00 +20°C° 0 mm 1 mps 749 mmHg 69%
    18:00 +17°C° 0 mm 0 mps 749 mmHg 74%
    19:00 +15°C° 0 mm 0 mps 749 mmHg 79%
    20:00 +13°C° 0 mm 0 mps 750 mmHg 84%
    21:00 +12°C° 0 mm 0 mps 750 mmHg 87%
    22:00 +13°C° 0 mm 1 mps 750 mmHg 89%
    23:00 +12°C° 0 mm 1 mps 750 mmHg 92%
    Show more